This is the latest recevied weather packets stored in our database for station/object K9TLD. If no packets are shown the sender has not sent any weather packets the latest 10 day(s).
| Time | Temp. | Humidity | Pressure | Rain* | Wind** | Luminosity | Snow |
|---|---|---|---|---|---|---|---|
| 1778162235 | 9.44° C | 46% | 1016.3 hPa | 0 mm | - | 427 W/m² | - |
| 1778161932 | 9.44° C | 48% | 1016.2 hPa | 0 mm | - | 400 W/m² | - |
| 1778161628 | 8.33° C | 49% | 1016.3 hPa | 0 mm | - | 83 W/m² | - |
| 1778161324 | 7.78° C | 51% | 1016.4 hPa | 0 mm | - | 341 W/m² | - |
| 1778161020 | 7.78° C | 50% | 1016.4 hPa | 0 mm | - | 354 W/m² | - |
| 1778160718 | 7.78° C | 50% | 1016.2 hPa | 0 mm | - | 336 W/m² | - |
| 1778160415 | 7.78° C | 51% | 1016.4 hPa | 0 mm | - | 320 W/m² | - |
| 1778160111 | 7.78° C | 52% | 1016.5 hPa | 0 mm | - | 303 W/m² | - |
| 1778159808 | 7.78° C | 52% | 1016.5 hPa | 0 mm | - | 289 W/m² | - |
| 1778159506 | 7.22° C | 53% | 1016.4 hPa | 0 mm | - | 275 W/m² | - |
| 1778159202 | 7.22° C | 53% | 1016.3 hPa | 0 mm | - | 260 W/m² | - |
| 1778158900 | 7.22° C | 54% | 1016.3 hPa | 0 mm | - | 245 W/m² | - |
| 1778158599 | 7.22° C | 56% | 1016.3 hPa | 0 mm | - | 235 W/m² | - |
| 1778158296 | 6.67° C | 57% | 1016.4 hPa | 0 mm | - | 221 W/m² | - |
| 1778157992 | 6.11° C | 57% | 1016.3 hPa | 0 mm | - | 207 W/m² | - |
| 1778157690 | 6.11° C | 58% | 1016.3 hPa | 0 mm | - | 195 W/m² | - |
| 1778157388 | 6.11° C | 60% | 1016.2 hPa | 0 mm | - | 181 W/m² | - |
| 1778157085 | 5.56° C | 59% | 1016.4 hPa | 0 mm | - | 168 W/m² | - |
| 1778156780 | 5.56° C | 61% | 1016.3 hPa | 0 mm | - | 155 W/m² | - |
| 1778156476 | 5° C | 62% | 1016.2 hPa | 0 mm | - | 145 W/m² | - |
| 1778156172 | 4.44° C | 63% | 1016.1 hPa | 0 mm | - | 132 W/m² | - |
| 1778155868 | 4.44° C | 64% | 1016.1 hPa | 0 mm | - | 119 W/m² | - |
| 1778155564 | 3.89° C | 65% | 1016.2 hPa | 0 mm | - | 108 W/m² | - |
| 1778155261 | 3.33° C | 67% | 1016.3 hPa | 0 mm | - | 96 W/m² | - |
| 1778154957 | 2.78° C | 69% | 1016.3 hPa | 0 mm | - | 32 W/m² | - |
* Rain latest hour (hover to see other rain measurements)
** Current wind speed in m/s (hover to see current wind gust speed)